This demonstration page uses our WeatherBlox Daily Observations layout. Learn more.

Left ArrowRight Arrow

44.8408, -93.29828

Hourly Observations for August 12, 2021

Temp ( °F °C ) Dew Point ( °F °C ) Humidity (%) Winds ( mph kmh ) Pressure ( in mb ) Visibility ( mi km ) Precip ( " mm )
12:53 am 00:53 Mostly Clear 71 21.7 54 12.2 55 55 SW 13 20 29.76 1008 10 16 0.00 0.00
1:53 am 01:53 Mostly Clear 71 21.7 54 12.2 55 55 SW 6 9 29.76 1008 10 16 0.00 0.00
2:53 am 02:53 Partly Cloudy 72 22.2 54 12.2 53 53 WSW 7 11 29.76 1008 10 16 0.00 0.00
3:53 am 03:53 Mostly Cloudy 72 22.2 55 12.8 55 55 SW 10 17 29.76 1008 10 16 0.00 0.00
4:53 am 04:53 Mostly Cloudy 71 21.7 56 13.3 59 59 WSW 10 17 29.78 1008 10 16 0.00 0.00
5:53 am 05:53 Mostly Cloudy 70 21.1 57 13.9 64 64 WSW 8 13 29.78 1008 10 16 0.00 0.00
6:53 am 06:53 Mostly Cloudy 70 21.1 58 14.4 66 66 Calm 29.80 1009 10 16 0.00 0.00
7:53 am 07:53 Mostly Cloudy 72 22.2 59 15 64 64 W 8 13 29.83 1010 10 16 0.00 0.00
8:53 am 08:53 Mostly Cloudy 74 23.3 59 15 60 60 W 6 9 29.85 1011 10 16 0.00 0.00
9:53 am 09:53 Mostly Cloudy 69 20.6 61 16.1 76 76 WNW 8 13 29.87 1011 10 16 0.01 0.25
10:53 am 10:53 Partly Cloudy 77 25 55 12.8 47 47 NW 15 24 29.88 1012 10 16 0.00 0.00
11:53 am 11:53 Mostly Sunny 80 26.7 51 10.6 37 37 NW 20 31 29.90 1012 10 16 0.00 0.00
12:53 pm 12:53 Mostly Sunny 80 26.7 45 7.2 29 29 NW 20 31 29.91 1013 10 16 0.00 0.00
1:53 pm 13:53 Sunny 80 26.7 48 8.9 33 33 NW 17 28 29.92 1013 10 16 0.00 0.00
2:53 pm 14:53 Mostly Sunny 80 26.7 48 8.9 33 33 W 16 26 29.92 1013 10 16 0.00 0.00
3:53 pm 15:53 Mostly Sunny 81 27.2 43 6.1 26 26 WNW 15 24 29.92 1013 10 16 0.00 0.00
4:53 pm 16:53 Sunny 80 26.7 45 7.2 29 29 NW 16 26 29.92 1013 10 16 0.00 0.00
5:53 pm 17:53 Sunny 80 26.7 43 6.1 27 27 WNW 15 24 29.92 1013 10 16 0.00 0.00
6:53 pm 18:53 Sunny 78 25.6 44 6.7 30 30 NW 10 17 29.93 1013 10 16 0.00 0.00
7:53 pm 19:53 Sunny 75 23.9 43 6.1 32 32 NW 12 19 29.95 1014 10 16 0.00 0.00
8:53 pm 20:53 Clear 74 23.3 45 7.2 36 36 W 8 13 29.99 1016 10 16 0.00 0.00
9:53 pm 21:53 Clear 71 21.7 46 7.8 41 41 W 6 9 30.02 1017 10 16 0.00 0.00
10:53 pm 22:53 Clear 70 21.1 47 8.3 44 44 WSW 6 9 30.01 1016 10 16 0.00 0.00
11:53 pm 23:53 Clear 68 20 49 9.4 51 51 WSW 5 7 30.01 1016 10 16 0.00 0.00

Powered by AerisWeather